Cloud_Cover
100 100 100 100 100 100 100 100 100 100 100 100 100 94 6 5 5 5 2 5 0 10 5 5 2 0 2 0 0 0 0 0 0 0 0 0 50 100 100 100 100 100 98 100 98 93 100
100 100 100 100 100 100 100 100 100 100 100 100 100 100 17 5 5 4 4 5 5 0 5 5 4 0 0 0 0 0 0 0 0 0 0 0 70 100 94 100 100 83 100 52 98 90 100
100 100 100 100 100 100 100 100 100 100 100 100 100 100 19 6 5 5 5 5 5 0 67 5 5 0 0 0 0 0 0 2 3 0 2 0 5 100 100 100 100 100 100 100 65 25 100
100 100 100 100 100 100 100 100 100 100 100 100 100 28 5 8 20 5 13 5 5 5 100 5 5 0 0 0 0 0 2 67 48 4 2 32 67 100 93 59 97 29 100 100 100 86 100
100 100 100 100 100 100 100 100 100 100 100 100 99 61 78 100 100 97 100 62 8 88 97 5 5 4 0 0 0 1 5 39 58 2 0 5 9 100 57 96 62 78 98 100 100 57 100
100 100 99 100 100 100 100 100 100 100 100 100 100 100 100 100 94 100 100 27 51 98 13 5 5 0 0 0 0 0 0 6 0 0 3 57 34 100 97 13 81 100 100 100 100 95 100
100 100 95 89 100 100 100 100 100 100 100 100 100 100 100 100 100 100 100 60 77 100 71 5 3 0 0 0 0 0 0 0 4 2 43 92 99 100 100 94 100 99 100 100 100 100 100
100 100 100 100 99 90 100 100 100 100 100 100 100 100 100 100 100 100 100 55 100 100 49 27 5 1 0 0 0 0 0 0 5 33 92 97 94 100 100 95 74 100 69 83 100 100 100
100 100 100 100 100 99 100 100 100 100 100 100 100 100 100 100 100 100 100 32 100 77 12 5 5 0 0 0 0 0 0 1 6 83 99 22 99 100 100 100 100 72 87 100 100 100 69
100 99 95 100 100 100 100 100 100 100 91 83 100 100 100 100 100 100 100 100 97 5 5 5 5 1 0 0 0 0 2 1 13 57 100 100 100 100 100 90 100 60 70 97 100 100 98
100 93 8 30 94 100 100 100 100 100 96 34 100 100 100 100 100 100 100 100 56 49 6 5 5 0 0 0 0 0 4 100 50 5 47 100 100 96 100 96 73 100 92 100 99 100 99
100 100 94 2 4 100 100 100 100 100 100 96 97 100 100 100 100 100 100 100 100 71 97 5 5 0 0 0 0 1 60 59 18 50 41 89 32 98 100 100 100 100 97 95 100 100 100
100 100 100 99 30 19 88 69 67 100 100 100 84 100 100 100 100 100 100 100 18 63 99 8 4 2 0 0 0 3 3 1 1 5 44 98 63 100 100 94 99 97 100 94 100 100 100
100 100 100 100 100 98 80 99 100 5 99 100 100 100 99 100 100 100 100 54 98 78 100 5 5 5 0 0 0 0 29 5 0 0 97 100 100 96 86 64 100 77 67 89 100 100 100
100 100 100 99 100 100 65 96 100 36 5 100 100 100 100 100 100 100 94 100 100 100 56 12 66 6 2 0 43 9 1 0 2 0 4 6 44 100 88 100 100 92 74 100 100 100 100
100 100 100 100 100 100 100 19 100 99 85 93 100 100 100 100 100 100 100 100 94 100 100 100 53 21 3 2 14 96 5 0 64 0 5 74 100 100 100 94 100 100 63 19 75 100 100
100 100 100 100 100 100 100 100 100 88 29 94 100 100 100 100 100 100 95 86 100 100 96 100 100 74 5 5 5 7 2 2 2 52 86 100 100 100 92 100 78 100 90 9 66 91 100
100 100 100 100 100 100 100 100 100 86 0 99 100 100 97 100 100 95 100 100 100 100 25 100 100 100 6 5 99 5 0 39 70 13 58 94 99 100 100 100 70 58 29 99 70 73 100
100 98 98 68 100 100 100 100 100 98 53 96 100 100 96 87 84 6 94 100 100 100 100 100 100 99 5 37 100 30 4 53 96 98 5 80 91 65 88 83 81 93 81 100 100 98 74
100 100 17 97 100 100 100 100 100 100 56 100 100 100 100 84 41 46 74 100 100 100 78 100 100 100 100 11 100 99 4 28 24 24 100 75 94 100 77 77 11 67 71 36 7 44 1
89 25 13 94 100 100 93 100 100 100 97 100 100 78 7 100 85 4 67 95 100 100 100 100 100 100 100 17 98 96 6 5 3 0 4 11 22 34 42 5 38 46 36 5 72 2 3
100 5 8 100 100 100 10 100 100 100 97 100 100 100 92 100 100 5 5 99 100 100 100 100 100 100 43 50 4 5 1 4 0 0 0 0 0 0 0 0 0 5 2 5 5 0 0
100 82 70 66 96 100 97 17 100 100 100 100 100 100 98 100 100 5 2 80 100 100 100 100 100 100 57 15 3 5 41 3 0 2 0 0 0 0 0 0 0 0 0 0 0 0 0
100 60 5 38 19 5 67 22 100 100 67 100 100 100 93 25 43 73 100 100 100 100 100 100 100 100 81 40 42 84 12 5 15 69 4 0 0 5 0 0 0 0 0 0 0 0 0
100 93 5 5 5 9 67 99 100 100 20 98 100 100 83 98 5 85 100 100 100 100 100 100 100 100 91 70 11 16 31 29 1 57 50 2 23 5 1 0 0 0 0 0 0 0 0
100 98 6 100 99 41 100 100 96 37 5 100 100 100 100 100 4 16 100 100 100 100 100 100 100 100 8 82 91 10 20 4 0 0 0 5 2 5 0 0 1 0 0 0 0 0 5
98 67 94 100 100 89 100 100 34 38 62 100 100 100 100 100 55 78 68 14 100 100 100 100 96 100 63 80 90 6 58 1 0 0 5 9 1 0 8 12 0 5 1 0 0 1 5
100 100 100 100 100 100 100 87 56 78 71 87 100 100 100 100 65 85 100 100 43 80 91 83 100 100 98 83 53 30 24 1 5 4 5 5 39 6 67 58 12 22 5 1 4 6 5
100 100 100 98 100 100 100 65 89 98 3 96 100 98 100 100 91 100 100 100 69 99 100 100 100 100 100 99 92 99 85 86 0 0 2 5 2 0 0 0 0 5 5 55 94 5 5